Flag for Gambia Weather past 2 weeks in Banjul, Gambia

Now
64 °F

Clear.


Feels Like: 64 °F
Forecast: 68 / 85 °F
Wind: 8 mph from North

Location: Banjul / Yundum

Current Time: Mar 7, 2015 at 2:28:32 AM

Latest Report: Mar 7, 2015 at 2:00 AM


Visibility: 6 mi

Pressure: 29.83 "Hg

Humidity: 94%

Dew point: 63 °F

Location of BanjulLocation

Historic Weather in Banjul — Graph

°F

Banjul temperature yesterday

Maximum temperature yesterday: 84 °F (at 3:00 PM)
Minimum temperature yesterday: 63 °F (at 7:00 AM)
Average temperature yesterday: 71 °F

Past Weeks' High & Low Weather Summary

 TemperatureHumidityPressure
High100 °F (Mar 4, 3:00 PM)94% (Mar 6, 4:00 AM)29.98 "Hg (Mar 6, 4:00 AM)
Low63 °F (Feb 21, 4:00 AM)5% (Feb 27, 12:00 PM)29.71 "Hg (Feb 26, 5:00 PM)
Average77 °F38%29.86 "Hg
* Reported Midnight between Feb 19 and Feb 20 — Midnight between Mar 6 and Mar 7, Banjul, Weather by CustomWeather, © 2015

Note: Actual official high and low records may vary slightly from our data, if they occured in-between our weather recording intervals... More about our weather records

Advertising

Banjul weather history for previous 24 hours

 ConditionsComfort  
Time TempWeatherWind HumidityBarometerVisibility
12:00 AM
Sat, Mar 7
66 °FClear.12 mph88%29.86 "Hg10 mi
11:00 PM
Fri, Mar 6
68 °FClear.12 mph83%29.83 "Hg10 mi
10:00 PM68 °FClear.12 mph83%29.83 "Hg10 mi
9:00 PM68 °FClear.14 mph83%29.83 "Hg10 mi
8:00 PM68 °FClear.15 mph83%29.83 "Hg10 mi
7:00 PM72 °FSunny.12 mph69%29.80 "Hg10 mi
6:00 PM75 °FSunny.14 mph61%29.80 "Hg10 mi
5:00 PM79 °FSunny.12 mph54%29.80 "Hg10 mi
4:00 PM82 °FSunny.9 mph48%29.80 "Hg10 mi
3:00 PM84 °FSunny.7 mph40%29.80 "Hg10 mi
2:00 PM82 °FSunny.7 mph40%29.83 "Hg10 mi
1:00 PM82 °FSunny.9 mph42%29.86 "Hg10 mi
12:00 PM79 °FSunny.5 mph30%29.86 "Hg10 mi
11:00 AM77 °FSunny.9 mph54%29.89 "Hg10 mi
10:00 AM70 °FSunny.13 mph73%29.92 "Hg10 mi
9:00 AM66 °FSunny.7 mph83%29.89 "Hg10 mi
8:00 AM63 °FSunny.10 mph94%29.86 "Hg10 mi
7:00 AM63 °FClear.3 mph94%29.86 "Hg10 mi
6:00 AM64 °FClear.3 mph94%29.86 "Hg10 mi
5:00 AM66 °FClear.9 mph88%29.86 "Hg10 mi
4:00 AM64 °FClear.7 mph94%29.86 "Hg10 mi
3:00 AM66 °FClear.9 mph88%29.86 "Hg10 mi
Weather by CustomWeather, © 2015

See weather overviewHow to use our weather pages